Time,TemperatureF,DewpointF,PressureIn,WindDirection,WindDirectionDegrees,WindSpeedMPH,WindSpeedGustMPH,Humidity,HourlyPrecipIn,Conditions,Clouds,dailyrainin,SoftwareType,DateUTC
2013-03-20 07:45:00,47.9,33.8,30.12,NW,304,0.0,0.0,58,0.00,,,0.00,Wunderground v.1.15,2013-03-20 14:45:00,
2013-03-20 07:50:00,48.4,33.9,30.13,West,281,0.0,0.0,57,0.00,,,0.00,Wunderground v.1.15,2013-03-20 14:50:00,
2013-03-20 07:55:00,49.3,34.3,30.13,West,277,0.0,0.0,56,0.00,,,0.00,Wunderground v.1.15,2013-03-20 14:55:00,
2013-03-20 08:00:00,50.1,34.5,30.13,West,277,0.0,0.0,55,0.00,,,0.00,Wunderground v.1.15,2013-03-20 15:00:00,
2013-03-20 08:05:00,51.0,34.0,30.13,West,277,0.0,0.0,52,0.00,,,0.00,Wunderground v.1.15,2013-03-20 15:05:00,
2013-03-20 08:15:00,52.8,32.0,30.13,West,277,0.0,0.0,45,0.00,,,0.00,Wunderground v.1.15,2013-03-20 15:15:00,
2013-03-20 08:25:00,53.8,30.6,30.13,West,277,0.0,0.0,41,0.00,,,0.00,Wunderground v.1.15,2013-03-20 15:25:00,
2013-03-20 08:30:00,54.3,31.1,30.13,West,277,0.0,0.0,41,0.00,,,0.00,Wunderground v.1.15,2013-03-20 15:30:00,
2013-03-20 08:40:00,55.1,31.8,30.13,West,277,0.0,0.0,41,0.00,,,0.00,Wunderground v.1.15,2013-03-20 15:40:00,
2013-03-20 08:45:00,55.3,32.0,30.13,NE,51,0.0,0.0,41,0.00,,,0.00,Wunderground v.1.15,2013-03-20 15:45:00,
2013-03-20 08:55:00,55.6,32.8,30.13,East,98,0.0,1.0,42,0.00,,,0.00,Wunderground v.1.15,2013-03-20 15:55:00,
2013-03-20 09:00:00,55.8,32.4,30.13,NNE,32,1.0,1.0,41,0.00,,,0.00,Wunderground v.1.15,2013-03-20 16:00:00,
2013-03-20 09:10:00,56.5,31.2,30.13,NE,41,1.0,1.0,38,0.00,,,0.00,Wunderground v.1.15,2013-03-20 16:10:00,
2013-03-20 09:15:00,57.0,31.6,30.13,NE,53,1.0,1.0,38,0.00,,,0.00,Wunderground v.1.15,2013-03-20 16:15:00,
2013-03-20 09:25:00,57.6,31.5,30.13,NNE,30,1.0,1.0,37,0.00,,,0.00,Wunderground v.1.15,2013-03-20 16:25:00,
2013-03-20 09:30:00,58.1,33.2,30.13,NE,50,1.0,3.0,39,0.00,,,0.00,Wunderground v.1.15,2013-03-20 16:30:00,
2013-03-20 09:40:00,58.2,31.3,30.14,NE,47,1.0,1.0,36,0.00,,,0.00,Wunderground v.1.15,2013-03-20 16:40:00,
2013-03-20 09:45:00,58.4,32.2,30.13,NE,42,2.0,2.0,37,0.00,,,0.00,Wunderground v.1.15,2013-03-20 16:45:00,
2013-03-20 09:55:00,59.1,30.7,30.14,NE,55,2.0,3.0,34,0.00,,,0.00,Wunderground v.1.15,2013-03-20 16:55:00,
2013-03-20 10:00:00,59.5,31.1,30.14,ENE,63,1.0,1.0,34,0.00,,,0.00,Wunderground v.1.15,2013-03-20 17:00:00,
2013-03-20 10:10:00,60.3,31.8,30.13,East,91,1.0,1.0,34,0.00,,,0.00,Wunderground v.1.15,2013-03-20 17:10:00,
2013-03-20 10:15:00,60.8,30.7,30.13,North,11,1.0,1.0,32,0.00,,,0.00,Wunderground v.1.15,2013-03-20 17:15:00,
2013-03-20 10:25:00,61.5,30.6,30.12,East,88,1.0,2.0,31,0.00,,,0.00,Wunderground v.1.15,2013-03-20 17:25:00,
2013-03-20 10:30:00,61.9,30.1,30.12,SSW,207,1.0,1.0,30,0.00,,,0.00,Wunderground v.1.15,2013-03-20 17:30:00,
2013-03-20 10:40:00,62.5,31.4,30.11,East,85,2.0,2.0,31,0.00,,,0.00,Wunderground v.1.15,2013-03-20 17:40:00,
2013-03-20 10:45:00,63.3,32.1,30.11,East,82,1.0,2.0,31,0.00,,,0.00,Wunderground v.1.15,2013-03-20 17:45:00,
2013-03-20 10:55:00,64.2,32.1,30.11,NNE,26,1.0,1.0,30,0.00,,,0.00,Wunderground v.1.15,2013-03-20 17:55:00,
2013-03-20 11:00:00,63.9,32.6,30.11,ENE,63,2.0,3.0,31,0.00,,,0.00,Wunderground v.1.15,2013-03-20 18:00:00,
2013-03-20 11:10:00,63.8,31.7,30.10,ESE,113,2.0,3.0,30,0.00,,,0.00,Wunderground v.1.15,2013-03-20 18:10:00,
2013-03-20 11:15:00,64.3,32.2,30.10,NE,51,1.0,4.0,30,0.00,,,0.00,Wunderground v.1.15,2013-03-20 18:15:00,
2013-03-20 11:25:00,64.8,31.8,30.10,ENE,66,2.0,3.0,29,0.00,,,0.00,Wunderground v.1.15,2013-03-20 18:25:00,
2013-03-20 11:30:00,65.1,32.0,30.10,ENE,58,1.0,3.0,29,0.00,,,0.00,Wunderground v.1.15,2013-03-20 18:30:00,
2013-03-20 11:40:00,65.3,32.2,30.09,SW,232,2.0,2.0,29,0.00,,,0.00,Wunderground v.1.15,2013-03-20 18:40:00,
2013-03-20 11:45:00,66.2,33.0,30.09,NNE,15,1.0,2.0,29,0.00,,,0.00,Wunderground v.1.15,2013-03-20 18:45:00,
2013-03-20 11:55:00,68.0,33.7,30.09,ESE,109,1.0,3.0,28,0.00,,,0.00,Wunderground v.1.15,2013-03-20 18:55:00,
2013-03-20 12:00:00,68.6,34.2,30.08,ESE,107,2.0,2.0,28,0.00,,,0.00,Wunderground v.1.15,2013-03-20 19:00:00,
2013-03-20 12:10:00,69.5,34.0,30.08,ESE,105,2.0,2.0,27,0.00,,,0.00,Wunderground v.1.15,2013-03-20 19:10:00,
2013-03-20 12:15:00,69.9,34.4,30.07,SE,133,2.0,2.0,27,0.00,,,0.00,Wunderground v.1.15,2013-03-20 19:15:00,
2013-03-20 12:25:00,71.0,34.4,30.06,South,186,3.0,3.0,26,0.00,,,0.00,Wunderground v.1.15,2013-03-20 19:25:00,
2013-03-20 12:30:00,72.0,35.2,30.05,SE,127,3.0,7.0,26,0.00,,,0.00,Wunderground v.1.15,2013-03-20 19:30:00,
2013-03-20 12:40:00,73.2,34.2,30.04,East,87,3.0,3.0,24,0.00,,,0.00,Wunderground v.1.15,2013-03-20 19:40:00,
2013-03-20 12:45:00,73.5,34.5,30.04,WSW,252,5.0,5.0,24,0.00,,,0.00,Wunderground v.1.15,2013-03-20 19:45:00,
2013-03-20 12:55:00,73.6,34.6,30.04,SW,228,6.0,11.0,24,0.00,,,0.00,Wunderground v.1.15,2013-03-20 19:55:00,
2013-03-20 13:00:00,73.6,34.6,30.04,WSW,245,7.0,12.0,24,0.00,,,0.00,Wunderground v.1.15,2013-03-20 20:00:00,
2013-03-20 13:10:00,73.9,34.8,30.03,WSW,238,6.0,6.0,24,0.00,,,0.00,Wunderground v.1.15,2013-03-20 20:10:00,
2013-03-20 13:15:00,73.1,34.1,30.03,South,169,9.0,10.0,24,0.00,,,0.00,Wunderground v.1.15,2013-03-20 20:15:00,
2013-03-20 13:25:00,72.5,33.6,30.02,South,176,11.0,13.0,24,0.00,,,0.00,Wunderground v.1.15,2013-03-20 20:25:00,
2013-03-20 13:30:00,72.5,33.6,30.02,SW,230,9.0,9.0,24,0.00,,,0.00,Wunderground v.1.15,2013-03-20 20:30:00,
2013-03-20 13:40:00,72.0,33.2,30.01,SSW,203,10.0,14.0,24,0.00,,,0.00,Wunderground v.1.15,2013-03-20 20:40:00,
2013-03-20 13:45:00,72.0,33.2,30.00,SSW,207,11.0,14.0,24,0.00,,,0.00,Wunderground v.1.15,2013-03-20 20:45:00,
2013-03-20 13:55:00,72.0,33.2,30.00,SSW,211,10.0,11.0,24,0.00,,,0.00,Wunderground v.1.15,2013-03-20 20:55:00,
2013-03-20 14:00:00,71.9,34.1,30.00,SSW,192,9.0,9.0,25,0.00,,,0.00,Wunderground v.1.15,2013-03-20 21:00:00,
2013-03-20 14:10:00,72.8,33.9,29.99,SSW,203,7.0,7.0,24,0.00,,,0.00,Wunderground v.1.15,2013-03-20 21:10:00,
2013-03-20 14:15:00,72.5,33.6,29.98,SSE,158,8.0,14.0,24,0.00,,,0.00,Wunderground v.1.15,2013-03-20 21:15:00,
2013-03-20 14:25:00,71.7,33.0,29.99,South,175,10.0,14.0,24,0.00,,,0.00,Wunderground v.1.15,2013-03-20 21:25:00,
2013-03-20 14:30:00,71.7,34.0,29.99,SW,223,9.0,10.0,25,0.00,,,0.00,Wunderground v.1.15,2013-03-20 21:30:00,
2013-03-20 14:40:00,71.4,33.7,29.99,South,183,10.0,10.0,25,0.00,,,0.00,Wunderground v.1.15,2013-03-20 21:40:00,
2013-03-20 14:45:00,71.6,33.9,29.98,South,186,9.0,10.0,25,0.00,,,0.00,Wunderground v.1.15,2013-03-20 21:45:00,
2013-03-20 14:55:00,71.6,33.9,29.98,SW,216,9.0,10.0,25,0.00,,,0.00,Wunderground v.1.15,2013-03-20 21:55:00,
2013-03-20 15:00:00,71.8,34.1,29.98,South,173,7.0,9.0,25,0.00,,,0.00,Wunderground v.1.15,2013-03-20 22:00:00,
2013-03-20 15:10:00,71.7,34.0,29.98,South,189,9.0,11.0,25,0.00,,,0.00,Wunderground v.1.15,2013-03-20 22:10:00,
2013-03-20 15:15:00,71.7,34.0,29.98,South,191,9.0,11.0,25,0.00,,,0.00,Wunderground v.1.15,2013-03-20 22:15:00,
2013-03-20 15:25:00,71.9,34.1,29.97,SSE,160,9.0,9.0,25,0.00,,,0.00,Wunderground v.1.15,2013-03-20 22:25:00,
2013-03-20 15:30:00,72.1,33.3,29.97,SW,219,9.0,9.0,24,0.00,,,0.00,Wunderground v.1.15,2013-03-20 22:30:00,
2013-03-20 15:40:00,72.0,33.2,29.97,South,182,8.0,8.0,24,0.00,,,0.00,Wunderground v.1.15,2013-03-20 22:40:00,
2013-03-20 15:45:00,71.9,34.1,29.97,SE,133,9.0,9.0,25,0.00,,,0.00,Wunderground v.1.15,2013-03-20 22:45:00,
2013-03-20 15:55:00,71.3,33.6,29.98,South,182,8.0,10.0,25,0.00,,,0.00,Wunderground v.1.15,2013-03-20 22:55:00,
2013-03-20 16:00:00,71.2,34.5,29.97,SE,143,9.0,9.0,26,0.00,,,0.00,Wunderground v.1.15,2013-03-20 23:00:00,
2013-03-20 16:10:00,71.2,34.5,29.97,SSW,205,8.0,11.0,26,0.00,,,0.00,Wunderground v.1.15,2013-03-20 23:10:00,
2013-03-20 16:15:00,71.0,34.4,29.97,South,172,9.0,11.0,26,0.00,,,0.00,Wunderground v.1.15,2013-03-20 23:15:00,
2013-03-20 16:25:00,70.9,34.3,29.97,SW,219,8.0,9.0,26,0.00,,,0.00,Wunderground v.1.15,2013-03-20 23:25:00,
2013-03-20 16:30:00,70.6,34.0,29.97,WSW,238,8.0,8.0,26,0.00,,,0.00,Wunderground v.1.15,2013-03-20 23:30:00,
2013-03-20 16:40:00,70.5,34.9,29.97,South,179,4.0,7.0,27,0.00,,,0.00,Wunderground v.1.15,2013-03-20 23:40:00,
2013-03-20 16:45:00,70.2,34.6,29.97,SSW,204,4.0,7.0,27,0.00,,,0.00,Wunderground v.1.15,2013-03-20 23:45:00,
2013-03-20 16:55:00,69.8,34.3,29.96,South,175,6.0,8.0,27,0.00,,,0.00,Wunderground v.1.15,2013-03-20 23:55:00,
2013-03-20 17:00:00,69.4,33.9,29.96,SW,230,5.0,7.0,27,0.00,,,0.00,Wunderground v.1.15,2013-03-21 00:00:00,
2013-03-20 17:10:00,69.4,33.9,29.96,SW,232,4.0,4.0,27,0.00,,,0.00,Wunderground v.1.15,2013-03-21 00:10:00,
2013-03-20 17:15:00,68.6,34.2,29.96,South,189,6.0,10.0,28,0.00,,,0.00,Wunderground v.1.15,2013-03-21 00:15:00,
2013-03-20 17:25:00,67.9,34.4,29.96,South,172,8.0,9.0,29,0.00,,,0.00,Wunderground v.1.15,2013-03-21 00:25:00,
2013-03-20 17:30:00,67.7,33.4,29.96,South,188,7.0,7.0,28,0.00,,,0.00,Wunderground v.1.15,2013-03-21 00:30:00,
2013-03-20 17:40:00,67.4,34.0,29.96,South,171,7.0,7.0,29,0.00,,,0.00,Wunderground v.1.15,2013-03-21 00:40:00,
2013-03-20 17:45:00,67.3,33.9,29.96,SW,219,6.0,7.0,29,0.00,,,0.00,Wunderground v.1.15,2013-03-21 00:45:00,
2013-03-20 17:55:00,66.9,33.6,29.96,South,172,6.0,7.0,29,0.00,,,0.00,Wunderground v.1.15,2013-03-21 00:55:00,
2013-03-20 18:00:00,66.7,33.4,29.96,SE,126,7.0,7.0,29,0.00,,,0.00,Wunderground v.1.15,2013-03-21 01:00:00,
2013-03-20 18:10:00,66.4,33.2,29.96,SSE,159,6.0,6.0,29,0.00,,,0.00,Wunderground v.1.15,2013-03-21 01:10:00,
2013-03-20 18:15:00,66.2,33.0,29.96,SSE,167,5.0,8.0,29,0.00,,,0.00,Wunderground v.1.15,2013-03-21 01:15:00,
2013-03-20 18:25:00,65.8,33.5,29.96,SSW,206,4.0,4.0,30,0.00,,,0.00,Wunderground v.1.15,2013-03-21 01:25:00,
2013-03-20 18:30:00,65.6,33.3,29.96,SW,222,3.0,3.0,30,0.00,,,0.00,Wunderground v.1.15,2013-03-21 01:30:00,
2013-03-20 18:40:00,65.6,33.3,29.96,SW,234,4.0,4.0,30,0.00,,,0.00,Wunderground v.1.15,2013-03-21 01:40:00,
2013-03-20 18:45:00,65.3,33.0,29.96,South,186,4.0,4.0,30,0.00,,,0.00,Wunderground v.1.15,2013-03-21 01:45:00,
2013-03-20 18:55:00,65.0,33.6,29.96,South,177,5.0,5.0,31,0.00,,,0.00,Wunderground v.1.15,2013-03-21 01:55:00,
2013-03-20 19:00:00,64.6,33.3,29.96,SSW,195,4.0,4.0,31,0.00,,,0.00,Wunderground v.1.15,2013-03-21 02:00:00,
2013-03-20 19:10:00,63.8,33.4,29.96,SSW,210,3.0,4.0,32,0.00,,,0.00,Wunderground v.1.15,2013-03-21 02:10:00,
2013-03-20 19:15:00,63.7,33.3,29.96,SSW,195,4.0,6.0,32,0.00,,,0.00,Wunderground v.1.15,2013-03-21 02:15:00,
2013-03-20 19:25:00,63.6,33.2,29.96,SSW,206,4.0,4.0,32,0.00,,,0.00,Wunderground v.1.15,2013-03-21 02:25:00,
2013-03-20 19:30:00,63.2,33.6,29.96,South,179,4.0,5.0,33,0.00,,,0.00,Wunderground v.1.15,2013-03-21 02:30:00,
2013-03-20 19:40:00,63.3,33.7,29.96,South,174,5.0,5.0,33,0.00,,,0.00,Wunderground v.1.15,2013-03-21 02:40:00,
2013-03-20 19:45:00,63.1,33.5,29.96,SSW,195,5.0,5.0,33,0.00,,,0.00,Wunderground v.1.15,2013-03-21 02:45:00,
2013-03-20 19:55:00,63.1,33.5,29.97,South,184,4.0,4.0,33,0.00,,,0.00,Wunderground v.1.15,2013-03-21 02:55:00,
2013-03-20 20:00:00,62.8,33.2,29.97,SSE,154,4.0,4.0,33,0.00,,,0.00,Wunderground v.1.15,2013-03-21 03:00:00,
2013-03-20 20:10:00,62.5,33.0,29.96,SSW,205,3.0,3.0,33,0.00,,,0.00,Wunderground v.1.15,2013-03-21 03:10:00,
2013-03-20 20:15:00,62.4,32.9,29.96,SSW,206,3.0,3.0,33,0.00,,,0.00,Wunderground v.1.15,2013-03-21 03:15:00,
2013-03-20 20:25:00,62.4,33.6,29.96,SSW,205,3.0,3.0,34,0.00,,,0.00,Wunderground v.1.15,2013-03-21 03:25:00,
2013-03-20 20:30:00,62.2,33.5,29.97,SW,221,2.0,2.0,34,0.00,,,0.00,Wunderground v.1.15,2013-03-21 03:30:00,
2013-03-20 20:40:00,61.8,33.1,29.96,WSW,250,1.0,1.0,34,0.00,,,0.00,Wunderground v.1.15,2013-03-21 03:40:00,
2013-03-20 20:45:00,61.3,33.4,29.96,SW,229,0.0,1.0,35,0.00,,,0.00,Wunderground v.1.15,2013-03-21 03:45:00,
2013-03-20 20:55:00,60.8,33.0,29.97,SSW,213,0.0,1.0,35,0.00,,,0.00,Wunderground v.1.15,2013-03-21 03:55:00,
2013-03-20 21:00:00,59.5,32.5,29.96,North,4,0.0,0.0,36,0.00,,,0.00,Wunderground v.1.15,2013-03-21 04:00:00,
2013-03-20 21:05:00,58.9,32.7,29.96,NE,48,0.0,0.0,37,0.00,,,0.00,Wunderground v.1.15,2013-03-21 04:05:00,
2013-03-20 21:10:00,58.9,32.7,29.97,SE,145,0.0,0.0,37,0.00,,,0.00,Wunderground v.1.15,2013-03-21 04:10:00,
2013-03-20 21:15:00,59.1,33.5,29.97,SW,221,1.0,4.0,38,0.00,,,0.00,Wunderground v.1.15,2013-03-21 04:15:00,
2013-03-20 21:25:00,59.6,33.9,29.96,SE,146,2.0,4.0,38,0.00,,,0.00,Wunderground v.1.15,2013-03-21 04:25:00,
2013-03-20 21:30:00,60.1,33.7,29.97,South,181,3.0,5.0,37,0.00,,,0.00,Wunderground v.1.15,2013-03-21 04:30:00,